SL-19 DEB, 23484

Orbit data source: Space-Track

SL-19 DEB, 23484 is space debris in LEO originally from a launch on Mon, 26 Dec 1994 UTC launched from the Tyuratam Missile And Space Complex (TTMTR). Debris objects in space refer to the collection of defunct objects orbiting the Earth. Examples of debris include non-operational satellites, rocket bodies, and fragments generated from explosions, collisions, or faulty payload assembly.

Loading next visibility...
Identifier
23484, 1994-085G
Orbit
LEO
Country
Flag of CISCIS
Related business
Manufacturer
Unknown
Mission
Spacecraft
Bus & Motor
Unknown
Mass
Unknown
Launch date (UTC)
1994-12-26 (31 years ago)
Launch vehicle
Unknown
Launch site
Tyuratam Missile And Space Complex (TTMTR)
Object type
Payload
Rocket body
Debris
Shape & HBR
Unknown
Radar Cross Section
Medium (>0.1 m² and <1 m²)

Expand to show TLE details & history
Last TLE update: 13 hours ago

TLE from 13 hours ago
0 SL-19 DEB
1 23484U 94085G   25261.03199069  .00000235  00000-0  80338-2 0  9994
2 23484  64.7319 236.4160 0238173 180.7772 244.7576 11.22702109257285
Epoch: 2025-09-18T00:46Z
TLE epoch observation values (Epoch: 2025-09-18T00:46:03.995Z)
Latitude
53.85475°
Longitude
-92.2629°
Altitude
2,143.921 km
Speed
6.809 km/s
True Right ascension
18h 25m 48s
True Declination
53° 43' 03"
Sunlit
Object was in daylight at epoch
Visualization orbit readout
Latitude
Unknown
Longitude
Unknown
Altitude
Unknown
Speed
Unknown
Apparent Right ascension
Unknown
Apparent Declination
Unknown
Sunlit
N/A
Visualization observer readout
Local Sidereal Time
06:16:22
Azimuth
Unknown
Elevation
Unknown
Doppler factor
Unknown
Orbital elements
Apogee altitude
2,246.095 km
Perigee altitude
1,844.84 km
Semi-major axis
8,423.604 km
Eccentricity
0.02382
Inclination
64.7319°
RAAN
236.416°
Arg. of periapsis
180.7772°
True anomaly
242.32065°
Mean anomaly
244.7576°
Eccentric anomaly
243.53596°
Mean motion
2.80735 °/min
Orbital period
128.23 mins
BSTAR
0.0080338
Loading maneuver chart data...
Computing Atmospheric mass density...
Loading historical data...
Loading historical data...
Loading historical data...
Loading historical data...
Loading historical data...
Loading historical data...
Loading historical data...

Documentation

Showing up to 5 results
|